Volver al catálogo

COSMOS 1818 COOLANT

ActivoLEO
NORAD 36949·DEBRIS·🇷🇺 Russia

Lanzado Feb 1, 1987 desde Baikonur Cosmodrome

Loading…

Próximos Pases (próximas 24 horas)

TLE

ObsoletoSource: Space-Track

Época: Sep 3, 2026, 11:36 UTC

1 36949U 87011AD  26246.48362922  .00000482  00000-0  18144-3 0  9999
2 36949  65.0100 316.6407 0021623 278.9910  80.8732 14.40896028355229

Sigue COSMOS 1818 COOLANT en tiempo real con AllMySat

Download on the App Store